This is the latest recevied weather packets stored in our database for station/object N4WFF. If no packets are shown the sender has not sent any weather packets the latest 10 day(s).
| Time | Temp. | Humidity | Pressure | Rain* | Wind** | Luminosity | Snow |
|---|---|---|---|---|---|---|---|
| 1778013956 | 26.67° C | 58% | 1013.5 hPa | 0 mm | - | 463 W/m² | - |
| 1778013656 | 26.67° C | 57% | 1013.5 hPa | 0 mm | - | 430 W/m² | - |
| 1778013355 | 26.67° C | 57% | 1013.8 hPa | 0 mm | - | 273 W/m² | - |
| 1778013056 | 26.67° C | 58% | 1013.9 hPa | 0 mm | - | 486 W/m² | - |
| 1778012756 | 27.22° C | 56% | 1014 hPa | 0 mm | - | 274 W/m² | - |
| 1778012455 | 27.22° C | 56% | 1013.9 hPa | 0 mm | - | 842 W/m² | - |
| 1778012156 | 26.67° C | 55% | 1013.9 hPa | 0 mm | - | 811 W/m² | - |
| 1778011856 | 26.67° C | 56% | 1013.9 hPa | 0 mm | - | 796 W/m² | - |
| 1778011556 | 26.67° C | 57% | 1013.9 hPa | 0 mm | - | 815 W/m² | - |
| 1778011255 | 26.67° C | 57% | 1013.9 hPa | 0 mm | - | 196 W/m² | - |
| 1778010956 | 26.67° C | 55% | 1013.9 hPa | 0 mm | - | 956 W/m² | - |
| 1778010656 | 26.67° C | 56% | 1014.1 hPa | 0 mm | - | 903 W/m² | - |
| 1778010357 | 26.67° C | 56% | 1014.2 hPa | 0 mm | - | 843 W/m² | - |
| 1778010055 | 26.67° C | 56% | 1014.4 hPa | 0 mm | - | 844 W/m² | - |
| 1778009756 | 26.67° C | 56% | 1014.4 hPa | 0 mm | - | 860 W/m² | - |
| 1778009456 | 26.67° C | 56% | 1014.5 hPa | 0 mm | - | 793 W/m² | - |
| 1778009156 | 26.67° C | 55% | 1014.5 hPa | 0 mm | - | 916 W/m² | - |
| 1778008856 | 26.11° C | 58% | 1014.5 hPa | 0 mm | - | 911 W/m² | - |
| 1778008556 | 26.11° C | 57% | 1014.6 hPa | 0 mm | - | 843 W/m² | - |
| 1778008256 | 26.11° C | 57% | 1014.6 hPa | 0 mm | - | 900 W/m² | - |
| 1778007708 | 25.56° C | 59% | 1014.9 hPa | 0 mm | - | 500 W/m² | - |
| 1778007356 | 25.56° C | 59% | 1015.1 hPa | 0 mm | - | 849 W/m² | - |
| 1778007056 | 25.56° C | 58% | 1015.2 hPa | 0 mm | - | 747 W/m² | - |
| 1778006756 | 25.56° C | 57% | 1015.3 hPa | 0 mm | - | 776 W/m² | - |
| 1778006456 | 25.56° C | 59% | 1015.3 hPa | 0 mm | - | 960 W/m² | - |
* Rain latest hour (hover to see other rain measurements)
** Current wind speed in m/s (hover to see current wind gust speed)